| time (UTC) | temp F | wind direction | speed MPH | gust MPH | rain 1hr in | rain 24hr in | rain mn in | humidity % | barometer mb |
| 20260905050950 | 62 | 316 | 0.0 | 0.0 | 0.00 | 0.00 | 0.00 | 92 | 1007.1 |
| 20260905050931 | 62 | 316 | 0.0 | 0.0 | 0.00 | 0.00 | 0.00 | 92 | 1007.1 |
| 20260905045950 | 62 | 316 | 0.0 | 0.0 | 0.00 | 0.00 | 0.00 | 92 | 1007.1 |
| 20260905045449 | 62 | 316 | 0.0 | 0.0 | 0.00 | 0.00 | 0.00 | 92 | 1007.1 |
| 20260905045209 | 62 | 316 | 0.0 | 0.0 | 0.00 | 0.00 | 0.00 | 91 | 1007.1 |
| 20260905044918 | 63 | 316 | 0.0 | 0.0 | 0.00 | 0.00 | 0.00 | 91 | 1007.1 |
| 20260905044541 | 63 | 316 | 0.0 | 0.0 | 0.00 | 0.00 | 0.00 | 91 | 1007.2 |
| 20260905043449 | 63 | 316 | 0.0 | 0.0 | 0.00 | 0.00 | 0.00 | 91 | 1007.1 |
| 20260905043208 | 63 | 316 | 0.0 | 0.0 | 0.00 | 0.00 | 0.00 | 91 | 1007.1 |
| 20260905042702 | 63 | 316 | 0.0 | 0.0 | 0.00 | 0.00 | 0.00 | 90 | 1007.1 |
| 20260905042425 | 63 | 316 | 0.0 | 0.0 | 0.00 | 0.00 | 0.00 | 91 | 1007.1 |
| 20260905041705 | 63 | 316 | 0.0 | 0.0 | 0.00 | 0.00 | 0.00 | 90 | 1007.1 |
| 20260905040946 | 63 | 316 | 0.0 | 0.0 | 0.00 | 0.00 | 0.00 | 90 | 1007.2 |
| 20260905040446 | 64 | 316 | 0.0 | 0.0 | 0.00 | 0.00 | 0.00 | 90 | 1007.1 |
| 20260905040206 | 64 | 316 | 0.0 | 0.0 | 0.00 | 0.00 | 0.00 | 89 | 1007.2 |
| 20260905035446 | 64 | 316 | 0.0 | 0.0 | 0.00 | 0.00 | 0.00 | 89 | 1007.2 |
| 20260905034945 | 64 | 316 | 0.0 | 0.0 | 0.00 | 0.00 | 0.00 | 89 | 1007.1 |
| 20260905034439 | 64 | 316 | 0.0 | 0.0 | 0.00 | 0.00 | 0.00 | 89 | 1007.1 |
| 20260905034200 | 64 | 316 | 0.0 | 0.0 | 0.00 | 0.00 | 0.00 | 88 | 1007.1 |
| 20260905033437 | 64 | 316 | 0.0 | 1.0 | 0.00 | 0.00 | 0.00 | 88 | 1007.0 |
| 20260905032935 | 65 | 316 | 0.0 | 1.0 | 0.00 | 0.00 | 0.00 | 88 | 1007.0 |
| 20260905032435 | 65 | 315 | 0.0 | 0.0 | 0.00 | 0.00 | 0.00 | 87 | 1007.0 |
| 20260905031934 | 65 | 314 | 0.0 | 0.0 | 0.00 | 0.00 | 0.00 | 87 | 1007.1 |
| 20260905031434 | 66 | 314 | 0.0 | 0.0 | 0.00 | 0.00 | 0.00 | 87 | 1007.1 |
| 20260905030935 | 66 | 314 | 0.0 | 0.0 | 0.00 | 0.00 | 0.00 | 86 | 1007.1 |
| 20260905030435 | 66 | 314 | 0.0 | 0.0 | 0.00 | 0.00 | 0.00 | 86 | 1007.2 |
| 20260905030152 | 67 | 314 | 0.0 | 1.0 | 0.00 | 0.00 | 0.00 | 85 | 1007.2 |
| 20260905025429 | 67 | 314 | 0.0 | 1.0 | 0.00 | 0.00 | 0.00 | 85 | 1007.2 |
| 20260905025148 | 67 | 308 | 0.0 | 0.0 | 0.00 | 0.00 | 0.00 | 84 | 1007.2 |
| 20260905024430 | 67 | 308 | 0.0 | 0.0 | 0.00 | 0.00 | 0.00 | 84 | 1007.3 |
| 20260905023927 | 67 | 308 | 0.0 | 0.0 | 0.00 | 0.00 | 0.00 | 83 | 1007.2 |
| 20260905023425 | 68 | 308 | 0.0 | 0.0 | 0.00 | 0.00 | 0.00 | 82 | 1007.3 |
| 20260905022924 | 68 | 308 | 0.0 | 1.0 | 0.00 | 0.00 | 0.00 | 82 | 1007.3 |
| 20260905022425 | 68 | 308 | 0.0 | 1.0 | 0.00 | 0.00 | 0.00 | 81 | 1007.4 |
| 20260905022149 | 68 | 308 | 0.0 | 4.0 | 0.00 | 0.00 | 0.00 | 81 | 1007.4 |
| 20260905021648 | 69 | 308 | 0.0 | 4.0 | 0.00 | 0.00 | 0.00 | 80 | 1007.4 |
| 20260905020919 | 69 | 340 | 0.0 | 1.0 | 0.00 | 0.00 | 0.00 | 80 | 1007.5 |
| 20260905020854 | 69 | 340 | 0.0 | 1.0 | 0.00 | 0.00 | 0.00 | 80 | 1007.5 |
| 20260905015908 | 69 | 340 | 0.0 | 2.0 | 0.00 | 0.00 | 0.00 | 80 | 1007.4 |
| 20260905015401 | 69 | 340 | 0.0 | 2.0 | 0.00 | 0.00 | 0.00 | 80 | 1007.4 |
| 20260905015346 | 69 | 338 | 0.0 | 1.0 | 0.00 | 0.00 | 0.00 | 79 | 1007.4 |
| 20260905014349 | 70 | 338 | 0.0 | 1.0 | 0.00 | 0.00 | 0.00 | 77 | 1007.4 |
| 20260905013845 | 70 | 333 | 0.0 | 2.0 | 0.00 | 0.00 | 0.00 | 77 | 1007.4 |
| 20260905013337 | 70 | 333 | 0.0 | 2.0 | 0.00 | 0.00 | 0.00 | 75 | 1007.3 |
| 20260905012833 | 70 | 330 | 0.0 | 1.0 | 0.00 | 0.00 | 0.00 | 75 | 1007.4 |
| 20260905012326 | 70 | 329 | 0.0 | 2.0 | 0.00 | 0.00 | 0.00 | 75 | 1007.4 |
| 20260905011820 | 70 | 329 | 0.0 | 2.0 | 0.00 | 0.00 | 0.00 | 74 | 1007.4 |
| 20260905011313 | 70 | 329 | 0.0 | 2.0 | 0.00 | 0.00 | 0.00 | 75 | 1007.4 |
| 20260905010808 | 70 | 329 | 0.0 | 2.0 | 0.00 | 0.00 | 0.00 | 76 | 1007.4 |
| 20260905010302 | 70 | 329 | 0.0 | 1.0 | 0.00 | 0.00 | 0.00 | 76 | 1007.5 |
| 20260905005755 | 70 | 329 | 0.0 | 1.0 | 0.00 | 0.00 | 0.00 | 77 | 1007.5 |
| 20260905005250 | 71 | 329 | 0.0 | 0.0 | 0.00 | 0.00 | 0.00 | 78 | 1007.5 |
| 20260905004743 | 71 | 329 | 0.0 | 0.0 | 0.00 | 0.00 | 0.00 | 78 | 1007.5 |
| 20260905004238 | 71 | 329 | 0.0 | 0.0 | 0.00 | 0.00 | 0.00 | 76 | 1007.5 |
| 20260905003732 | 72 | 329 | 0.0 | 0.0 | 0.00 | 0.00 | 0.00 | 73 | 1007.5 |
| 20260905003450 | 72 | 329 | 0.0 | 1.0 | 0.00 | 0.00 | 0.00 | 73 | 1007.6 |
| 20260905002719 | 72 | 329 | 0.0 | 3.0 | 0.00 | 0.00 | 0.00 | 71 | 1007.6 |
| 20260905002213 | 72 | 329 | 0.0 | 3.0 | 0.00 | 0.00 | 0.00 | 70 | 1007.5 |
| 20260905001708 | 72 | 334 | 0.0 | 4.0 | 0.00 | 0.00 | 0.00 | 69 | 1007.5 |
| 20260905001201 | 72 | 324 | 0.0 | 5.0 | 0.00 | 0.00 | 0.00 | 69 | 1007.4 |
| 20260905000656 | 72 | 355 | 0.0 | 5.0 | 0.00 | 0.00 | 0.00 | 69 | 1007.4 |
| 20260905000149 | 72 | 327 | 0.0 | 5.0 | 0.00 | 0.00 | 0.00 | 71 | 1007.4 |
| 20260904235644 | 72 | 350 | 0.0 | 5.0 | 0.00 | 0.00 | 0.00 | 69 | 1007.2 |
| 20260904235405 | 72 | 350 | 1.0 | 4.0 | 0.00 | 0.00 | 0.00 | 70 | 1007.2 |
| 20260904234633 | 73 | 340 | 1.0 | 4.0 | 0.00 | 0.00 | 0.00 | 70 | 1007.2 |
| 20260904234125 | 73 | 0 | 0.0 | 4.0 | 0.00 | 0.00 | 0.00 | 69 | 1007.1 |
| 20260904233620 | 73 | 355 | 0.0 | 4.0 | 0.00 | 0.00 | 0.00 | 69 | 1007.1 |
| 20260904233113 | 73 | 355 | 0.0 | 6.0 | 0.00 | 0.00 | 0.00 | 68 | 1007.0 |
| 20260904232607 | 73 | 18 | 0.0 | 6.0 | 0.00 | 0.00 | 0.00 | 67 | 1007.0 |
| 20260904232547 | 74 | 344 | 0.0 | 2.0 | 0.00 | 0.00 | 0.00 | 66 | 1006.9 |
| 20260904231555 | 74 | 342 | 0.0 | 3.0 | 0.00 | 0.00 | 0.00 | 67 | 1006.8 |
| 20260904231310 | 73 | 0 | 0.0 | 3.0 | 0.00 | 0.00 | 0.00 | 66 | 1006.9 |
| 20260904230544 | 73 | 329 | 0.0 | 6.0 | 0.00 | 0.00 | 0.00 | 67 | 1006.9 |
| 20260904230037 | 73 | 329 | 0.0 | 6.0 | 0.00 | 0.00 | 0.00 | 67 | 1006.9 |
| 20260904225531 | 72 | 5 | 0.0 | 3.0 | 0.00 | 0.00 | 0.00 | 70 | 1006.9 |
| 20260904225026 | 72 | 326 | 1.0 | 8.0 | 0.00 | 0.00 | 0.00 | 73 | 1006.9 |
| 20260904224520 | 71 | 327 | 0.0 | 8.0 | 0.00 | 0.00 | 0.00 | 76 | 1006.8 |
| 20260904224019 | 70 | 323 | 0.0 | 5.0 | 0.00 | 0.00 | 0.00 | 86 | 1006.7 |
| 20260904223507 | 70 | 211 | 0.0 | 0.0 | 0.00 | 0.00 | 0.00 | 88 | 1006.8 |
| 20260904223001 | 71 | 211 | 0.0 | 0.0 | 0.00 | 0.00 | 0.00 | 87 | 1006.8 |
| 20260904222455 | 71 | 211 | 0.0 | 0.0 | 0.00 | 0.00 | 0.00 | 87 | 1006.9 |
| 20260904221950 | 71 | 211 | 0.0 | 0.0 | 0.00 | 0.00 | 0.00 | 87 | 1006.9 |
| 20260904221443 | 71 | 211 | 0.0 | 0.0 | 0.00 | 0.00 | 0.00 | 87 | 1007.0 |
| 20260904220937 | 71 | 211 | 0.0 | 0.0 | 0.00 | 0.00 | 0.00 | 86 | 1007.0 |
| 20260904220432 | 72 | 211 | 0.0 | 0.0 | 0.00 | 0.00 | 0.00 | 86 | 1007.0 |
| 20260904215926 | 72 | 211 | 0.0 | 0.0 | 0.00 | 0.00 | 0.00 | 86 | 1007.0 |
| 20260904215639 | 72 | 211 | 0.0 | 0.0 | 0.00 | 0.00 | 0.00 | 85 | 1006.9 |
| 20260904214919 | 72 | 223 | 0.0 | 2.0 | 0.00 | 0.00 | 0.00 | 85 | 1006.7 |
| 20260904214418 | 72 | 223 | 0.0 | 3.0 | 0.00 | 0.00 | 0.00 | 86 | 1006.8 |
| 20260904213916 | 72 | 169 | 0.0 | 3.0 | 0.00 | 0.00 | 0.00 | 85 | 1006.8 |
| 20260904213415 | 72 | 194 | 0.0 | 2.0 | 0.00 | 0.00 | 0.00 | 85 | 1006.9 |
| 20260904212912 | 72 | 194 | 0.0 | 1.0 | 0.00 | 0.00 | 0.00 | 86 | 1006.9 |
| 20260904212411 | 72 | 194 | 0.0 | 1.0 | 0.00 | 0.00 | 0.00 | 86 | 1006.9 |
| 20260904211909 | 72 | 194 | 0.0 | 1.0 | 0.00 | 0.00 | 0.00 | 85 | 1006.9 |
| 20260904211407 | 73 | 194 | 0.0 | 1.0 | 0.00 | 0.00 | 0.00 | 85 | 1006.9 |
| 20260904210904 | 73 | 194 | 0.0 | 1.0 | 0.00 | 0.00 | 0.00 | 85 | 1007.0 |
| 20260904210402 | 73 | 196 | 0.0 | 2.0 | 0.00 | 0.00 | 0.00 | 86 | 1006.9 |
| 20260904205900 | 72 | 196 | 0.0 | 2.0 | 0.00 | 0.00 | 0.00 | 87 | 1006.8 |
| 20260904205401 | 72 | 196 | 0.0 | 2.0 | 0.00 | 0.00 | 0.00 | 88 | 1006.9 |
| 20260904204902 | 71 | 199 | 0.0 | 6.0 | 0.00 | 0.00 | 0.00 | 88 | 1006.8 |
| 20260904204400 | 71 | 200 | 1.0 | 6.0 | 0.00 | 0.00 | 0.00 | 88 | 1006.8 |
| 20260904203901 | 71 | 205 | 1.0 | 5.0 | 0.00 | 0.00 | 0.00 | 88 | 1006.9 |
| 20260904203358 | 71 | 223 | 0.0 | 4.0 | 0.00 | 0.00 | 0.00 | 88 | 1006.9 |
| 20260904202857 | 72 | 209 | 0.0 | 7.0 | 0.00 | 0.00 | 0.00 | 88 | 1006.7 |
| 20260904202357 | 72 | 209 | 0.0 | 7.0 | 0.00 | 0.00 | 0.00 | 86 | 1006.7 |
| 20260904201856 | 73 | 208 | 0.0 | 2.0 | 0.00 | 0.00 | 0.00 | 86 | 1006.8 |
| 20260904201356 | 74 | 207 | 0.0 | 0.0 | 0.00 | 0.00 | 0.00 | 86 | 1006.8 |
| 20260904200851 | 74 | 207 | 0.0 | 0.0 | 0.00 | 0.00 | 0.00 | 86 | 1006.8 |
| 20260904200346 | 74 | 207 | 0.0 | 0.0 | 0.00 | 0.00 | 0.00 | 85 | 1006.8 |
| 20260904200056 | 74 | 207 | 0.0 | 0.0 | 0.00 | 0.00 | 0.00 | 84 | 1006.9 |
| 20260904195333 | 74 | 207 | 0.0 | 0.0 | 0.00 | 0.00 | 0.00 | 84 | 1007.0 |
| 20260904194828 | 74 | 207 | 0.0 | 0.0 | 0.00 | 0.00 | 0.00 | 84 | 1006.9 |
| 20260904194321 | 74 | 207 | 0.0 | 0.0 | 0.00 | 0.00 | 0.00 | 84 | 1006.9 |
| 20260904193815 | 74 | 207 | 0.0 | 0.0 | 0.00 | 0.00 | 0.00 | 85 | 1006.8 |
| 20260904193308 | 74 | 207 | 0.0 | 1.0 | 0.00 | 0.00 | 0.00 | 85 | 1006.8 |
| 20260904192802 | 73 | 207 | 0.0 | 5.0 | 0.00 | 0.00 | 0.00 | 86 | 1006.7 |
| 20260904192258 | 73 | 157 | 0.0 | 3.0 | 0.00 | 0.00 | 0.00 | 87 | 1006.7 |
| 20260904192010 | 73 | 215 | 0.0 | 5.0 | 0.00 | 0.00 | 0.00 | 86 | 1006.8 |
| 20260904191244 | 72 | 168 | 0.0 | 5.0 | 0.00 | 0.00 | 0.00 | 86 | 1007.1 |
| 20260904190743 | 72 | 172 | 0.0 | 4.0 | 0.00 | 0.00 | 0.00 | 86 | 1007.2 |
| 20260904190242 | 72 | 280 | 0.0 | 5.0 | 0.00 | 0.00 | 0.00 | 86 | 1007.3 |
| 20260904190227 | 72 | 246 | 0.0 | 5.0 | 0.00 | 0.00 | 0.00 | 88 | 1007.3 |
| 20260904185245 | 71 | 257 | 0.0 | 1.0 | 0.00 | 0.00 | 0.00 | 88 | 1007.4 |
| 20260904184740 | 70 | 190 | 0.0 | 1.0 | 0.00 | 0.00 | 0.00 | 89 | 1007.2 |
| 20260904184459 | 70 | 232 | 0.0 | 2.0 | 0.00 | 0.00 | 0.00 | 90 | 1007.2 |
| 20260904183741 | 70 | 235 | 0.0 | 3.0 | 0.00 | 0.00 | 0.00 | 89 | 1007.3 |
| 20260904183707 | 70 | 246 | 0.0 | 5.0 | 0.00 | 0.00 | 0.00 | 88 | 1007.3 |
| 20260904183327 | 70 | 227 | 0.0 | 5.0 | 0.00 | 0.00 | 0.00 | 88 | 1007.4 |
| 20260904182456 | 71 | 226 | 0.0 | 6.0 | 0.00 | 0.00 | 0.00 | 87 | 1007.3 |
| 20260904181736 | 72 | 173 | 0.0 | 6.0 | 0.00 | 0.00 | 0.00 | 87 | 1007.4 |
| 20260904181450 | 72 | 188 | 0.0 | 2.0 | 0.00 | 0.00 | 0.00 | 88 | 1007.3 |
| 20260904180733 | 71 | 192 | 0.0 | 3.0 | 0.00 | 0.00 | 0.00 | 88 | 1007.4 |
| 20260904180230 | 71 | 182 | 0.0 | 3.0 | 0.00 | 0.00 | 0.00 | 88 | 1007.3 |
| 20260904175948 | 71 | 182 | 0.0 | 4.0 | 0.00 | 0.00 | 0.00 | 88 | 1007.4 |
| 20260904175228 | 71 | 185 | 0.0 | 5.0 | 0.00 | 0.00 | 0.00 | 87 | 1007.3 |
| 20260904174729 | 72 | 180 | 0.0 | 5.0 | 0.00 | 0.00 | 0.00 | 85 | 1007.3 |
| 20260904174226 | 73 | 214 | 0.0 | 4.0 | 0.00 | 0.00 | 0.00 | 84 | 1007.3 |
| 20260904173726 | 73 | 211 | 0.0 | 3.0 | 0.00 | 0.00 | 0.00 | 86 | 1007.1 |
| 20260904173224 | 72 | 219 | 0.0 | 2.0 | 0.00 | 0.00 | 0.00 | 87 | 1007.2 |
| 20260904172719 | 71 | 232 | 0.0 | 4.0 | 0.00 | 0.00 | 0.00 | 87 | 1007.4 |
| 20260904172212 | 71 | 229 | 0.0 | 4.0 | 0.00 | 0.00 | 0.00 | 88 | 1007.5 |
| 20260904171707 | 70 | 198 | 0.0 | 4.0 | 0.00 | 0.00 | 0.00 | 89 | 1007.6 |
| 20260904171200 | 71 | 199 | 0.0 | 4.0 | 0.00 | 0.00 | 0.00 | 88 | 1007.6 |
| 20260904170654 | 71 | 202 | 0.0 | 4.0 | 0.00 | 0.00 | 0.00 | 86 | 1007.7 |
| 20260904170148 | 72 | 232 | 0.0 | 4.0 | 0.00 | 0.00 | 0.00 | 85 | 1007.7 |
| 20260904165642 | 73 | 169 | 0.0 | 4.0 | 0.00 | 0.00 | 0.00 | 85 | 1007.7 |
| 20260904165140 | 73 | 223 | 0.0 | 4.0 | 0.00 | 0.00 | 0.00 | 86 | 1007.7 |
| 20260904165118 | 72 | 168 | 0.0 | 4.0 | 0.00 | 0.00 | 0.00 | 86 | 1007.8 |
| 20260904164139 | 71 | 180 | 0.0 | 2.0 | 0.00 | 0.00 | 0.00 | 86 | 1007.8 |
| 20260904163858 | 71 | 290 | 0.0 | 3.0 | 0.00 | 0.00 | 0.00 | 87 | 1007.9 |
| 20260904163354 | 71 | 210 | 1.0 | 6.0 | 0.00 | 0.00 | 0.00 | 89 | 1007.9 |
| 20260904162637 | 71 | 191 | 1.0 | 6.0 | 0.00 | 0.00 | 0.00 | 87 | 1008.1 |
| 20260904162137 | 72 | 181 | 0.0 | 4.0 | 0.00 | 0.00 | 0.00 | 86 | 1008.2 |
| 20260904161636 | 72 | 234 | 0.0 | 2.0 | 0.00 | 0.00 | 0.00 | 87 | 1008.2 |
| 20260904161134 | 71 | 165 | 0.0 | 0.0 | 0.00 | 0.00 | 0.00 | 89 | 1008.2 |
| 20260904160635 | 71 | 163 | 0.0 | 1.0 | 0.00 | 0.00 | 0.00 | 89 | 1008.2 |
| 20260904160134 | 70 | 171 | 0.0 | 1.0 | 0.00 | 0.00 | 0.00 | 90 | 1008.3 |
| 20260904155634 | 69 | 173 | 0.0 | 1.0 | 0.00 | 0.00 | 0.00 | 91 | 1008.2 |
| 20260904155134 | 69 | 174 | 0.0 | 1.0 | 0.00 | 0.00 | 0.00 | 91 | 1008.2 |
| 20260904154632 | 69 | 174 | 0.0 | 1.0 | 0.00 | 0.00 | 0.00 | 91 | 1008.4 |
| 20260904154132 | 68 | 150 | 0.0 | 0.0 | 0.00 | 0.00 | 0.00 | 91 | 1008.4 |
| 20260904153857 | 68 | 150 | 0.0 | 0.0 | 0.00 | 0.00 | 0.00 | 91 | 1008.5 |
| 20260904153130 | 68 | 150 | 0.0 | 0.0 | 0.00 | 0.00 | 0.00 | 91 | 1008.5 |
| 20260904152629 | 68 | 150 | 0.0 | 0.0 | 0.00 | 0.00 | 0.00 | 91 | 1008.6 |
| 20260904152132 | 68 | 150 | 0.0 | 0.0 | 0.00 | 0.00 | 0.00 | 91 | 1008.5 |
| 20260904151631 | 68 | 151 | 0.0 | 0.0 | 0.00 | 0.00 | 0.00 | 91 | 1008.5 |
| 20260904151129 | 68 | 151 | 0.0 | 2.0 | 0.00 | 0.00 | 0.00 | 91 | 1008.6 |
| 20260904150628 | 68 | 151 | 0.0 | 3.0 | 0.00 | 0.00 | 0.00 | 91 | 1008.6 |
| 20260904150349 | 68 | 153 | 0.0 | 3.0 | 0.00 | 0.00 | 0.00 | 91 | 1008.6 |
| 20260904145851 | 68 | 71 | 0.0 | 0.0 | 0.00 | 0.00 | 0.00 | 91 | 1008.7 |
| 20260904145125 | 68 | 71 | 0.0 | 0.0 | 0.00 | 0.00 | 0.00 | 91 | 1008.7 |
| 20260904144625 | 68 | 78 | 0.0 | 1.0 | 0.00 | 0.00 | 0.00 | 90 | 1008.6 |
| 20260904144341 | 69 | 87 | 0.0 | 1.0 | 0.00 | 0.00 | 0.00 | 91 | 1008.7 |
| 20260904143625 | 69 | 26 | 0.0 | 0.0 | 0.00 | 0.00 | 0.00 | 91 | 1008.7 |
| 20260904143124 | 69 | 54 | 0.0 | 0.0 | 0.00 | 0.00 | 0.00 | 91 | 1008.7 |
| 20260904142626 | 69 | 65 | 0.0 | 0.0 | 0.00 | 0.00 | 0.00 | 92 | 1008.7 |
| 20260904142125 | 69 | 65 | 0.0 | 0.0 | 0.00 | 0.00 | 0.00 | 93 | 1008.6 |
| 20260904142108 | 68 | 355 | 0.0 | 0.0 | 0.00 | 0.00 | 0.00 | 93 | 1008.7 |
| 20260904141124 | 68 | 16 | 0.0 | 0.0 | 0.00 | 0.00 | 0.00 | 93 | 1008.8 |
| 20260904140621 | 67 | 13 | 0.0 | 0.0 | 0.00 | 0.00 | 0.00 | 93 | 1008.8 |
| 20260904140350 | 67 | 9 | 0.0 | 0.0 | 0.00 | 0.00 | 0.00 | 93 | 1008.8 |
| 20260904135621 | 67 | 267 | 0.0 | 0.0 | 0.00 | 0.00 | 0.00 | 94 | 1008.7 |
| 20260904135120 | 67 | 258 | 0.0 | 0.0 | 0.00 | 0.00 | 0.00 | 94 | 1008.7 |
| 20260904134621 | 67 | 257 | 0.0 | 0.0 | 0.00 | 0.01 | 0.00 | 94 | 1008.7 |
| 20260904134120 | 67 | 257 | 0.0 | 0.0 | 0.00 | 0.01 | 0.00 | 95 | 1008.8 |
| 20260904133620 | 67 | 257 | 0.0 | 0.0 | 0.00 | 0.01 | 0.00 | 95 | 1008.8 |
| 20260904133120 | 67 | 257 | 0.0 | 0.0 | 0.00 | 0.01 | 0.00 | 95 | 1008.8 |
| 20260904132620 | 67 | 257 | 0.0 | 0.0 | 0.00 | 0.01 | 0.00 | 95 | 1008.8 |
| 20260904132117 | 67 | 257 | 0.0 | 0.0 | 0.00 | 0.01 | 0.00 | 96 | 1008.8 |
| 20260904131617 | 67 | 240 | 0.0 | 0.0 | 0.00 | 0.01 | 0.00 | 96 | 1008.8 |
| 20260904131116 | 66 | 240 | 0.0 | 0.0 | 0.00 | 0.01 | 0.00 | 96 | 1008.7 |
| 20260904130616 | 66 | 240 | 0.0 | 0.0 | 0.00 | 0.01 | 0.00 | 96 | 1008.7 |
| 20260904130116 | 66 | 240 | 0.0 | 0.0 | 0.00 | 0.02 | 0.00 | 96 | 1008.7 |
| 20260904125616 | 66 | 240 | 0.0 | 0.0 | 0.00 | 0.02 | 0.00 | 96 | 1008.8 |
| 20260904125116 | 66 | 240 | 0.0 | 0.0 | 0.00 | 0.02 | 0.00 | 96 | 1008.8 |
| 20260904124627 | 66 | 240 | 0.0 | 0.0 | 0.00 | 0.02 | 0.00 | 96 | 1008.8 |
| 20260904124117 | 66 | 240 | 0.0 | 0.0 | 0.00 | 0.02 | 0.00 | 96 | 1008.8 |
| 20260904123621 | 66 | 235 | 0.0 | 0.0 | 0.00 | 0.02 | 0.00 | 96 | 1008.8 |
| 20260904123118 | 66 | 235 | 0.0 | 0.0 | 0.00 | 0.02 | 0.00 | 96 | 1008.9 |
| 20260904122837 | 65 | 232 | 0.0 | 0.0 | 0.00 | 0.02 | 0.00 | 96 | 1008.7 |
| 20260904122116 | 66 | 338 | 0.0 | 1.0 | 0.00 | 0.02 | 0.00 | 96 | 1008.7 |
| 20260904121615 | 66 | 333 | 0.0 | 1.0 | 0.00 | 0.02 | 0.00 | 96 | 1008.7 |
| 20260904121115 | 66 | 336 | 0.0 | 0.0 | 0.00 | 0.02 | 0.00 | 97 | 1008.6 |
| 20260904120612 | 65 | 336 | 0.0 | 0.0 | 0.00 | 0.02 | 0.00 | 97 | 1008.7 |
| 20260904120329 | 65 | 337 | 0.0 | 0.0 | 0.00 | 0.02 | 0.00 | 96 | 1008.6 |
| 20260904115608 | 65 | 337 | 0.0 | 0.0 | 0.00 | 0.02 | 0.00 | 96 | 1008.7 |
| 20260904115108 | 65 | 335 | 0.0 | 0.0 | 0.00 | 0.02 | 0.00 | 96 | 1008.7 |
| 20260904114609 | 65 | 332 | 0.0 | 3.0 | 0.00 | 0.02 | 0.00 | 96 | 1008.8 |
| 20260904114106 | 65 | 326 | 0.0 | 3.0 | 0.00 | 0.02 | 0.00 | 96 | 1008.7 |
| 20260904113607 | 65 | 327 | 0.0 | 0.0 | 0.00 | 0.02 | 0.00 | 96 | 1008.4 |
| 20260904113106 | 65 | 325 | 0.0 | 0.0 | 0.00 | 0.02 | 0.00 | 96 | 1008.8 |
| 20260904112542 | 65 | 321 | 0.0 | 0.0 | 0.00 | 0.02 | 0.00 | 96 | 1008.9 |
| 20260904112306 | 65 | 321 | 0.0 | 0.0 | 0.00 | 0.02 | 0.00 | 96 | 1008.8 |
| 20260904111544 | 65 | 321 | 0.0 | 0.0 | 0.00 | 0.02 | 0.00 | 96 | 1008.7 |
| 20260904111039 | 65 | 321 | 0.0 | 1.0 | 0.00 | 0.02 | 0.00 | 96 | 1008.6 |
| 20260904110538 | 65 | 321 | 0.0 | 1.0 | 0.00 | 0.02 | 0.00 | 96 | 1008.6 |
| 20260904110038 | 65 | 273 | 0.0 | 0.0 | 0.00 | 0.02 | 0.00 | 96 | 1008.7 |
| 20260904105531 | 65 | 273 | 0.0 | 0.0 | 0.00 | 0.02 | 0.00 | 96 | 1008.7 |
| 20260904105250 | 65 | 273 | 0.0 | 0.0 | 0.00 | 0.02 | 0.00 | 96 | 1008.7 |
| 20260904104753 | 65 | 273 | 0.0 | 0.0 | 0.00 | 0.02 | 0.00 | 96 | 1008.7 |
| 20260904104028 | 65 | 273 | 0.0 | 0.0 | 0.00 | 0.02 | 0.00 | 96 | 1008.8 |
| 20260904103526 | 65 | 273 | 0.0 | 0.0 | 0.00 | 0.02 | 0.00 | 96 | 1008.7 |
| 20260904103026 | 65 | 273 | 0.0 | 0.0 | 0.00 | 0.02 | 0.00 | 96 | 1008.6 |
| 20260904102526 | 65 | 273 | 0.0 | 0.0 | 0.00 | 0.03 | 0.00 | 96 | 1008.5 |
| 20260904102246 | 65 | 274 | 0.0 | 0.0 | 0.00 | 0.03 | 0.00 | 96 | 1008.6 |
| 20260904101526 | 65 | 273 | 0.0 | 3.0 | 0.00 | 0.03 | 0.00 | 96 | 1008.6 |
| 20260904101244 | 65 | 273 | 0.0 | 3.0 | 0.00 | 0.03 | 0.00 | 96 | 1008.6 |
| 20260904100523 | 65 | 230 | 0.0 | 0.0 | 0.00 | 0.03 | 0.00 | 96 | 1008.5 |
| 20260904100021 | 65 | 224 | 0.0 | 0.0 | 0.00 | 0.03 | 0.00 | 96 | 1008.5 |
| 20260904095527 | 65 | 224 | 0.0 | 0.0 | 0.00 | 0.03 | 0.00 | 96 | 1008.4 |
| 20260904095021 | 65 | 221 | 0.0 | 0.0 | 0.00 | 0.06 | 0.00 | 96 | 1008.4 |
| 20260904094521 | 65 | 221 | 0.0 | 0.0 | 0.00 | 0.08 | 0.00 | 96 | 1008.4 |
| 20260904094021 | 65 | 221 | 0.0 | 0.0 | 0.00 | 0.09 | 0.00 | 96 | 1008.4 |
| 20260904093521 | 65 | 220 | 0.0 | 0.0 | 0.00 | 0.10 | 0.00 | 96 | 1008.3 |
| 20260904093020 | 65 | 220 | 0.0 | 0.0 | 0.00 | 0.11 | 0.00 | 96 | 1008.4 |
| 20260904092518 | 65 | 220 | 0.0 | 0.0 | 0.00 | 0.11 | 0.00 | 96 | 1008.4 |
| 20260904092017 | 65 | 220 | 0.0 | 0.0 | 0.00 | 0.11 | 0.00 | 96 | 1008.3 |
| 20260904091511 | 65 | 220 | 0.0 | 0.0 | 0.00 | 0.11 | 0.00 | 96 | 1008.4 |
| 20260904091011 | 65 | 220 | 0.0 | 0.0 | 0.00 | 0.11 | 0.00 | 96 | 1008.4 |
| 20260904090501 | 65 | 220 | 0.0 | 0.0 | 0.00 | 0.11 | 0.00 | 96 | 1008.4 |
| 20260904085953 | 65 | 220 | 0.0 | 0.0 | 0.00 | 0.11 | 0.00 | 96 | 1008.4 |
| 20260904085447 | 65 | 219 | 0.0 | 0.0 | 0.00 | 0.11 | 0.00 | 96 | 1008.4 |
| 20260904084941 | 65 | 215 | 0.0 | 0.0 | 0.00 | 0.11 | 0.00 | 96 | 1008.4 |
| 20260904084435 | 65 | 215 | 0.0 | 0.0 | 0.00 | 0.11 | 0.00 | 96 | 1008.4 |
| 20260904083930 | 65 | 215 | 0.0 | 0.0 | 0.00 | 0.11 | 0.00 | 96 | 1008.5 |
| 20260904083423 | 64 | 215 | 0.0 | 0.0 | 0.00 | 0.11 | 0.00 | 96 | 1008.5 |
| 20260904082920 | 64 | 215 | 0.0 | 0.0 | 0.00 | 0.11 | 0.00 | 96 | 1008.5 |
| 20260904082413 | 64 | 215 | 0.0 | 0.0 | 0.00 | 0.11 | 0.00 | 96 | 1008.5 |
| 20260904081905 | 64 | 215 | 0.0 | 0.0 | 0.00 | 0.11 | 0.00 | 96 | 1008.5 |
| 20260904081841 | 64 | 215 | 0.0 | 0.0 | 0.00 | 0.11 | 0.00 | 96 | 1008.5 |
| 20260904080853 | 64 | 215 | 0.0 | 0.0 | 0.00 | 0.11 | 0.00 | 96 | 1008.5 |
| 20260904080347 | 64 | 215 | 0.0 | 0.0 | 0.00 | 0.11 | 0.00 | 96 | 1008.5 |
| 20260904075841 | 64 | 215 | 0.0 | 0.0 | 0.00 | 0.11 | 0.00 | 96 | 1008.6 |
| 20260904075603 | 64 | 215 | 0.0 | 0.0 | 0.00 | 0.11 | 0.00 | 96 | 1008.6 |
| 20260904075047 | 64 | 215 | 0.0 | 0.0 | 0.00 | 0.11 | 0.00 | 96 | 1008.6 |
| 20260904074324 | 64 | 215 | 0.0 | 0.0 | 0.00 | 0.11 | 0.00 | 96 | 1008.6 |
| 20260904074042 | 64 | 215 | 0.0 | 0.0 | 0.00 | 0.11 | 0.00 | 96 | 1008.8 |
| 20260904073311 | 64 | 215 | 0.0 | 0.0 | 0.00 | 0.11 | 0.00 | 96 | 1008.8 |
| 20260904072805 | 64 | 215 | 0.0 | 0.0 | 0.00 | 0.11 | 0.00 | 96 | 1008.7 |
| 20260904072300 | 64 | 215 | 0.0 | 0.0 | 0.00 | 0.11 | 0.00 | 96 | 1008.7 |
| 20260904071753 | 64 | 215 | 0.0 | 0.0 | 0.00 | 0.11 | 0.00 | 96 | 1008.7 |
| 20260904071253 | 64 | 215 | 0.0 | 0.0 | 0.00 | 0.11 | 0.00 | 96 | 1008.8 |
| 20260904070742 | 64 | 215 | 0.0 | 0.0 | 0.00 | 0.11 | 0.00 | 96 | 1009.0 |
| 20260904070235 | 64 | 215 | 0.0 | 0.0 | 0.00 | 0.11 | 0.00 | 96 | 1008.9 |
| 20260904065729 | 63 | 215 | 0.0 | 0.0 | 0.00 | 0.11 | 0.00 | 96 | 1009.0 |
| 20260904065224 | 63 | 215 | 0.0 | 0.0 | 0.00 | 0.11 | 0.00 | 96 | 1009.0 |
| 20260904064717 | 63 | 215 | 0.0 | 0.0 | 0.00 | 0.11 | 0.00 | 96 | 1009.1 |
| 20260904064212 | 63 | 215 | 0.0 | 0.0 | 0.00 | 0.11 | 0.00 | 96 | 1009.1 |
| 20260904063706 | 63 | 215 | 0.0 | 0.0 | 0.00 | 0.11 | 0.00 | 96 | 1009.3 |
| 20260904063159 | 63 | 215 | 0.0 | 0.0 | 0.00 | 0.11 | 0.00 | 96 | 1009.2 |
| 20260904062653 | 63 | 215 | 0.0 | 0.0 | 0.00 | 0.11 | 0.00 | 96 | 1009.4 |
| 20260904062149 | 63 | 215 | 0.0 | 0.0 | 0.00 | 0.11 | 0.00 | 96 | 1009.5 |
| 20260904061643 | 63 | 215 | 0.0 | 0.0 | 0.00 | 0.11 | 0.00 | 96 | 1009.5 |
| 20260904061135 | 63 | 215 | 0.0 | 0.0 | 0.00 | 0.11 | 0.00 | 96 | 1009.6 |
| 20260904060629 | 63 | 215 | 0.0 | 0.0 | 0.00 | 0.11 | 0.00 | 96 | 1009.6 |
| 20260904060123 | 63 | 215 | 0.0 | 0.0 | 0.00 | 0.11 | 0.00 | 96 | 1009.6 |
| 20260904055617 | 63 | 215 | 0.0 | 0.0 | 0.00 | 0.11 | 0.00 | 96 | 1009.7 |
| 20260904055112 | 63 | 215 | 0.0 | 0.0 | 0.00 | 0.11 | 0.00 | 96 | 1009.7 |
| 20260904054605 | 63 | 215 | 0.0 | 0.0 | 0.00 | 0.11 | 0.00 | 96 | 1009.8 |
| 20260904054101 | 63 | 215 | 0.0 | 0.0 | 0.00 | 0.11 | 0.00 | 96 | 1009.8 |
| 20260904053555 | 63 | 215 | 0.0 | 0.0 | 0.00 | 0.11 | 0.00 | 96 | 1009.8 |
| 20260904053309 | 63 | 215 | 0.0 | 0.0 | 0.00 | 0.11 | 0.00 | 96 | 1009.8 |
| 20260904052804 | 63 | 215 | 0.0 | 0.0 | 0.00 | 0.11 | 0.00 | 96 | 1009.9 |
| 20260904052301 | 63 | 215 | 0.0 | 0.0 | 0.00 | 0.11 | 0.00 | 96 | 1010.0 |
| 20260904051531 | 63 | 213 | 0.0 | 0.0 | 0.00 | 0.11 | 0.00 | 96 | 1010.1 |